Location: Tel Aviv
(32.0670°N, 34.7670°E)
Time: 13:18:33
(UTC+03:00)

Transit 2A - Pass Details

Date: 24 January 2022
Orbit: 598 x 960 km, 66.7° (Epoch: 20 May)

Event Time Altitude Azimuth Distance (km) Brightness Sun altitude
Rises 10:18:02 0° 189° (S) 3,394 10.0 33.9°
Reaches altitude 10° 10:20:29 10° 185° (S) 2,511 9.7 34.2°
Maximum altitude 10:26:10 52° 110° (ESE) 1,136 8.0 34.7°
Drops below altitude 10° 10:32:14 10° 36° (NE) 2,680 8.6 35.2°
Sets 10:34:54 0° 32° (NNE) 3,642 9.2 35.5°
